Total_Precipitation_Accumulation
2.14 2.23 2.16 2.14 2.08 1.99 1.86 1.70 1.66 1.59 1.48 1.40 1.32 1.27 1.26 1.29 1.30 1.34 1.32 1.27 1.22 1.19 1.15 1.14 1.16 1.22 1.30 1.29 1.33 1.46 1.68 1.87 1.92 1.57 1.44 1.51 1.65 1.60 1.61 1.53 1.42 1.38 1.41
1.76 1.92 1.99 1.92 1.76 1.66 1.58 1.52 1.43 1.36 1.31 1.27 1.17 1.09 1.05 1.04 1.05 1.06 1.09 1.10 1.10 1.04 1.05 1.10 1.10 1.14 1.20 1.25 1.31 1.37 1.52 1.76 1.93 1.83 1.60 1.61 1.67 1.66 1.71 1.67 1.44 1.29 1.35
1.51 1.57 1.60 1.55 1.47 1.41 1.39 1.40 1.29 1.22 1.16 1.10 1.07 1.04 0.97 0.96 0.93 0.90 0.93 1.00 1.01 0.96 0.99 1.04 1.10 1.23 1.23 1.24 1.31 1.34 1.45 1.59 1.88 1.94 1.74 1.71 1.77 1.80 1.92 1.78 1.59 1.55 1.28
1.28 1.33 1.34 1.36 1.35 1.29 1.21 1.20 1.19 1.15 1.11 1.08 1.06 0.98 0.93 0.89 0.88 0.87 0.88 0.92 0.94 0.93 0.98 1.03 1.09 1.22 1.29 1.34 1.34 1.38 1.43 1.57 1.76 1.93 1.87 1.83 1.91 1.96 2.00 1.94 1.79 1.64 1.46
1.22 1.18 1.23 1.30 1.31 1.27 1.26 1.24 1.19 1.12 1.05 1.04 1.03 0.96 0.91 0.86 0.82 0.82 0.83 0.86 0.95 0.96 0.95 0.95 0.98 1.10 1.20 1.19 1.11 1.16 1.33 1.57 1.65 1.84 1.87 1.86 1.90 2.00 1.95 1.74 1.67 1.61 1.45
1.25 1.22 1.23 1.24 1.20 1.20 1.21 1.18 1.15 1.10 1.06 1.03 1.00 0.95 0.89 0.74 0.77 0.79 0.80 0.85 0.91 0.92 0.92 0.91 0.85 0.84 0.83 0.85 0.90 0.96 1.11 1.40 1.74 1.94 1.90 1.84 1.75 1.73 1.78 1.72 1.72 1.72 1.65
1.37 1.27 1.25 1.22 1.13 1.09 1.03 1.02 1.09 1.09 1.04 0.97 0.91 0.92 0.88 0.79 0.74 0.69 0.74 0.83 0.90 0.95 0.99 0.97 0.76 0.65 0.75 0.82 0.87 0.92 1.04 1.23 1.55 1.91 1.99 1.76 1.72 1.69 1.77 1.75 1.81 1.86 1.73
1.32 1.22 1.17 1.15 1.10 1.08 1.06 1.07 1.08 1.06 1.01 1.01 0.97 0.96 0.95 0.80 0.72 0.66 0.71 0.77 0.88 0.91 0.92 0.95 0.95 0.87 0.82 0.91 0.97 1.04 1.15 1.28 1.40 1.52 1.84 1.65 1.45 1.48 1.60 1.66 1.77 1.80 1.70
1.32 1.14 1.05 1.02 0.97 0.97 1.01 1.04 1.01 1.01 0.97 0.94 0.94 0.95 1.00 0.91 0.77 0.70 0.66 0.73 0.83 0.84 0.81 0.81 0.81 0.83 0.91 1.08 1.19 1.38 1.48 1.58 1.50 1.65 1.83 1.77 1.63 1.58 1.47 1.57 1.83 1.87 1.78
1.08 0.97 0.94 0.95 0.88 0.88 0.91 0.91 0.89 0.90 0.91 0.87 0.86 0.90 0.93 0.85 0.71 0.60 0.57 0.64 0.78 0.82 0.85 0.83 0.76 0.71 0.83 1.01 1.25 1.56 1.70 1.76 1.62 1.73 2.00 2.04 1.87 1.87 1.85 1.76 1.91 1.96 1.89
0.92 0.84 0.87 0.88 0.82 0.78 0.81 0.83 0.83 0.79 0.83 0.85 0.81 0.82 0.77 0.65 0.58 0.50 0.49 0.54 0.66 0.77 0.83 0.89 0.85 0.78 0.83 1.04 1.25 1.45 1.62 1.66 1.70 1.79 1.82 1.84 1.94 1.98 1.96 1.90 1.87 1.86 1.83
0.85 0.81 0.85 0.86 0.66 0.57 0.68 0.72 0.73 0.79 0.79 0.81 0.82 0.75 0.64 0.58 0.49 0.45 0.46 0.47 0.51 0.68 0.86 0.88 0.88 0.83 0.88 1.07 1.22 1.47 1.69 1.77 1.75 1.80 1.68 1.58 1.56 1.59 1.66 1.65 1.61 1.57 1.54
0.81 0.83 0.82 0.78 0.70 0.63 0.65 0.66 0.71 0.76 0.73 0.69 0.72 0.70 0.59 0.55 0.50 0.44 0.45 0.49 0.52 0.60 0.76 0.84 0.85 0.85 0.98 1.27 1.43 1.60 1.76 1.88 1.91 1.79 1.60 1.48 1.36 1.32 1.32 1.39 1.44 1.42 1.34
0.84 0.83 0.82 0.78 0.69 0.63 0.64 0.59 0.61 0.64 0.64 0.61 0.62 0.64 0.60 0.57 0.50 0.46 0.50 0.56 0.60 0.63 0.74 0.88 0.96 1.00 1.15 1.45 1.66 1.84 1.90 1.82 1.67 1.60 1.52 1.43 1.30 1.24 1.27 1.21 1.24 1.27 1.29
0.81 0.76 0.75 0.66 0.62 0.61 0.56 0.45 0.42 0.43 0.44 0.50 0.56 0.56 0.54 0.51 0.47 0.49 0.50 0.52 0.57 0.60 0.68 0.87 1.05 1.16 1.33 1.53 1.71 1.78 1.77 1.66 1.55 1.38 1.32 1.38 1.35 1.26 1.24 1.15 1.13 1.15 1.21
0.75 0.73 0.67 0.60 0.56 0.52 0.55 0.46 0.37 0.34 0.33 0.31 0.34 0.35 0.38 0.44 0.46 0.47 0.47 0.49 0.53 0.60 0.68 0.89 1.04 1.13 1.30 1.51 1.65 1.62 1.53 1.44 1.34 1.24 1.20 1.17 1.17 1.12 1.12 1.08 1.01 1.00 1.07
0.66 0.65 0.62 0.59 0.55 0.51 0.54 0.57 0.52 0.38 0.29 0.29 0.30 0.32 0.36 0.38 0.36 0.37 0.41 0.46 0.49 0.55 0.66 0.87 1.01 1.13 1.32 1.45 1.47 1.43 1.39 1.29 1.21 1.18 1.15 1.07 1.01 0.99 0.97 0.93 0.91 0.94 0.91
0.49 0.47 0.48 0.53 0.53 0.51 0.48 0.47 0.48 0.48 0.46 0.40 0.35 0.34 0.32 0.32 0.30 0.30 0.35 0.40 0.46 0.50 0.65 0.85 0.99 1.09 1.19 1.27 1.34 1.37 1.33 1.23 1.14 1.13 1.18 1.14 1.04 0.96 0.89 0.86 0.84 0.79 0.79
0.38 0.42 0.39 0.40 0.44 0.44 0.42 0.42 0.42 0.44 0.46 0.45 0.41 0.36 0.33 0.32 0.32 0.35 0.38 0.42 0.50 0.58 0.68 0.81 0.91 1.01 1.04 1.04 1.12 1.17 1.17 1.16 1.11 1.07 1.06 1.07 1.01 0.92 0.82 0.74 0.71 0.61 0.61
0.28 0.27 0.27 0.29 0.32 0.36 0.35 0.37 0.37 0.37 0.38 0.39 0.39 0.36 0.36 0.42 0.45 0.47 0.46 0.43 0.49 0.58 0.67 0.76 0.84 0.89 0.88 0.86 0.86 0.89 0.93 0.97 0.96 0.92 0.89 0.90 0.87 0.80 0.73 0.68 0.66 0.63 0.62
0.22 0.21 0.22 0.22 0.24 0.24 0.23 0.24 0.28 0.29 0.31 0.35 0.34 0.32 0.41 0.47 0.52 0.53 0.53 0.51 0.53 0.56 0.60 0.64 0.68 0.71 0.70 0.70 0.69 0.71 0.76 0.80 0.82 0.81 0.79 0.76 0.73 0.71 0.65 0.61 0.59 0.55 0.53
0.18 0.19 0.22 0.22 0.20 0.18 0.17 0.19 0.23 0.25 0.26 0.30 0.33 0.35 0.45 0.46 0.50 0.55 0.57 0.58 0.57 0.56 0.54 0.55 0.55 0.55 0.56 0.57 0.56 0.58 0.61 0.64 0.70 0.75 0.76 0.71 0.63 0.60 0.54 0.51 0.53 0.54 0.53
0.20 0.19 0.21 0.23 0.20 0.17 0.18 0.20 0.21 0.22 0.24 0.26 0.29 0.34 0.41 0.49 0.55 0.61 0.62 0.60 0.59 0.56 0.52 0.51 0.52 0.53 0.52 0.50 0.49 0.53 0.56 0.59 0.64 0.72 0.77 0.71 0.62 0.56 0.50 0.47 0.50 0.55 0.54
0.21 0.21 0.22 0.23 0.21 0.18 0.18 0.19 0.20 0.22 0.24 0.27 0.29 0.32 0.37 0.45 0.52 0.59 0.65 0.62 0.61 0.59 0.55 0.52 0.51 0.50 0.47 0.44 0.41 0.40 0.41 0.47 0.55 0.63 0.66 0.66 0.56 0.49 0.44 0.43 0.44 0.46 0.49
0.23 0.22 0.20 0.19 0.19 0.20 0.19 0.19 0.20 0.22 0.23 0.23 0.24 0.26 0.29 0.34 0.41 0.50 0.60 0.64 0.65 0.66 0.61 0.57 0.56 0.52 0.46 0.39 0.33 0.29 0.35 0.43 0.49 0.53 0.57 0.55 0.46 0.42 0.40 0.41 0.41 0.40 0.42
0.22 0.23 0.21 0.19 0.17 0.17 0.19 0.20 0.20 0.22 0.23 0.21 0.20 0.21 0.24 0.27 0.33 0.39 0.47 0.54 0.58 0.64 0.68 0.69 0.66 0.53 0.43 0.37 0.33 0.33 0.34 0.34 0.37 0.42 0.45 0.45 0.38 0.37 0.40 0.40 0.35 0.36 0.38